Date,TemperatureHighF,TemperatureAvgF,TemperatureLowF,DewpointHighF,DewpointAvgF,DewpointLowF,HumidityHigh,HumidityAvg,HumidityLow,PressureMaxIn,PressureMinIn,WindSpeedMaxMPH,WindSpeedAvgMPH,GustSpeedMaxMPH,PrecipitationSumIn
2013-2-1,68.1,62.4,57.3,57.0,53.4,49.0,89,73,55,30.34,30.19,13,4,15,0.00
2013-2-2,71.1,64.4,60.5,62.0,59.1,56.0,93,83,68,30.22,30.14,12,5,14,0.00
2013-2-3,67.4,62.7,58.0,61.0,59.4,57.0,95,89,73,30.28,30.01,14,6,15,0.01
2013-2-4,71.5,65.9,63.0,65.0,62.3,59.0,93,88,79,30.00,29.78,15,8,20,0.00
2013-2-5,71.8,66.2,62.1,67.0,64.1,61.0,96,93,83,29.94,29.84,13,6,16,0.01
2013-2-6,69.0,65.5,62.8,68.0,64.3,61.0,97,95,91,29.98,29.79,23,9,31,0.69
2013-2-7,72.4,65.9,63.5,68.0,63.9,62.0,96,93,85,29.97,29.85,8,4,11,0.00
2013-2-8,68.2,33.2,58.3,62.0,-18.6,-99.9,95,39,54,30.16,29.97,23,-468,27,0.00
2013-2-9,69.9,24.8,65.4,67.0,-39.9,-99.9,95,33,87,30.05,29.78,24,-633,24,0.00
2013-2-10,75.6,32.6,64.5,69.0,-23.6,-99.9,96,38,71,29.89,29.73,22,-531,25,0.00
2013-2-11,63.1,25.5,61.1,60.0,-34.5,-99.9,95,37,83,29.95,29.85,24,-583,30,0.00
2013-2-12,67.7,29.7,60.3,61.0,-25.3,-99.9,97,41,73,29.95,29.79,14,-517,19,0.00
2013-2-13,59.4,29.8,52.7,46.0,-23.2,-99.9,73,34,52,30.15,29.95,19,-458,23,0.00
2013-2-14,63.4,31.6,53.2,50.0,-23.7,-99.9,71,31,52,30.14,30.03,10,-464,14,0.00
2013-2-15,67.0,32.9,59.4,56.0,-21.2,-99.9,82,35,54,30.28,30.04,21,-479,25,0.00
2013-2-16,60.3,30.0,48.6,39.0,-31.3,-99.9,56,22,28,30.46,30.26,13,-458,21,0.00
2013-2-17,67.0,30.1,57.5,55.0,-28.3,-99.9,73,31,61,30.26,29.98,18,-525,24,0.00
2013-2-18,70.8,24.0,65.9,64.0,-42.7,-99.9,88,29,79,29.99,29.84,21,-644,28,0.00
2013-2-19,65.6,31.3,61.2,57.0,-24.0,-99.9,79,35,63,30.18,29.97,25,-498,28,0.00
2013-2-20,69.7,20.2,65.1,66.0,-50.8,-99.9,93,27,86,29.99,29.66,14,-698,21,0.00
2013-2-21,78.4,47.8,65.5,69.0,10.7,-99.9,94,53,55,29.79,29.58,21,-316,31,0.00
2013-2-22,67.8,65.2,61.0,60.0,53.6,48.0,83,67,49,29.91,29.77,25,13,30,0.00
2013-2-23,68.6,59.5,54.6,56.0,50.1,45.0,87,72,53,30.00,29.86,18,8,25,0.00
2013-2-24,67.5,63.4,58.1,66.0,60.8,54.0,96,91,83,29.89,29.59,13,5,16,0.00
2013-2-25,71.0,65.6,57.1,67.0,42.2,17.0,97,53,13,29.87,29.51,36,16,47,0.01
2013-2-26,64.7,57.0,47.3,53.0,37.4,28.0,77,49,27,30.00,29.85,20,8,29,0.00
2013-2-27,73.9,63.3,53.5,59.0,49.2,34.0,92,63,25,30.16,29.86,19,7,24,0.00
2013-2-28,59.4,54.8,50.6,40.0,32.6,27.0,60,44,30,30.29,30.16,21,10,26,0.00